Year,Month,Day,Hour,Minute,Value (Times are PST for temperature in C)
2014,02,19,00,00,-0.60
2014,02,19,00,01,-0.50
2014,02,19,00,02,-0.50
2014,02,19,00,03,-0.50
2014,02,19,00,04,-0.50
2014,02,19,00,05,-0.50
2014,02,19,00,06,-0.50
2014,02,19,00,07,-0.50
2014,02,19,00,08,-0.50
2014,02,19,00,09,-0.50
2014,02,19,00,10,-0.50
2014,02,19,00,11,-0.60
2014,02,19,00,12,-0.60
2014,02,19,00,13,-0.70
2014,02,19,00,14,-0.70
2014,02,19,00,15,-0.70
2014,02,19,00,16,-0.70
2014,02,19,00,17,-0.70
2014,02,19,00,18,-0.70
2014,02,19,00,19,-0.80
2014,02,19,00,20,-0.80
2014,02,19,00,21,-0.80
2014,02,19,00,22,-0.90
2014,02,19,00,23,-0.90
2014,02,19,00,24,-0.90
2014,02,19,00,25,-0.90
2014,02,19,00,26,-0.90
2014,02,19,00,27,-0.90
2014,02,19,00,28,-0.90
2014,02,19,00,29,-0.90
2014,02,19,00,30,-0.90
2014,02,19,00,31,-0.90
2014,02,19,00,32,-0.90
2014,02,19,00,33,-0.90
2014,02,19,00,34,-0.90
2014,02,19,00,35,-0.90
2014,02,19,00,36,-1.00
2014,02,19,00,37,-1.00
2014,02,19,00,38,-1.00
2014,02,19,00,39,-1.00
2014,02,19,00,40,-1.00
2014,02,19,00,41,-1.00
2014,02,19,00,42,-1.00
2014,02,19,00,43,-0.90
2014,02,19,00,44,-0.90
2014,02,19,00,45,-0.90
2014,02,19,00,46,-0.90
2014,02,19,00,47,-0.90
2014,02,19,00,48,-0.90
2014,02,19,00,49,-0.90
2014,02,19,00,50,-0.90
2014,02,19,00,51,-0.90
2014,02,19,00,52,-0.90
2014,02,19,00,53,-0.80
2014,02,19,00,54,-0.80
2014,02,19,00,55,-0.80
2014,02,19,00,56,-0.80
2014,02,19,00,57,-0.80
2014,02,19,00,58,-0.80
2014,02,19,00,59,-0.80
2014,02,19,01,00,-0.80
2014,02,19,01,01,-0.70
2014,02,19,01,02,-0.70
2014,02,19,01,03,-0.70
2014,02,19,01,04,-0.70
2014,02,19,01,05,-0.70
2014,02,19,01,06,-0.70
2014,02,19,01,07,-0.60
2014,02,19,01,08,-0.60
2014,02,19,01,09,-0.50
2014,02,19,01,10,-0.50
2014,02,19,01,11,-0.50
2014,02,19,01,12,-0.50
2014,02,19,01,13,-0.50
2014,02,19,01,14,-0.40
2014,02,19,01,15,-0.40
2014,02,19,01,16,-0.40
2014,02,19,01,17,-0.40
2014,02,19,01,18,-0.40
2014,02,19,01,19,-0.40
2014,02,19,01,20,-0.40
2014,02,19,01,21,-0.40
2014,02,19,01,22,-0.40
2014,02,19,01,23,-0.40
2014,02,19,01,24,-0.40
2014,02,19,01,25,-0.40
2014,02,19,01,26,-0.40
2014,02,19,01,27,-0.40
2014,02,19,01,28,-0.40
2014,02,19,01,29,-0.40
2014,02,19,01,30,-0.40
2014,02,19,01,31,-0.40
2014,02,19,01,32,-0.40
2014,02,19,01,33,-0.40
2014,02,19,01,34,-0.40
2014,02,19,01,35,-0.50
2014,02,19,01,36,-0.50
2014,02,19,01,37,-0.50
2014,02,19,01,38,-0.50
2014,02,19,01,39,-0.50
2014,02,19,01,40,-0.50
2014,02,19,01,41,-0.50
2014,02,19,01,42,-0.50
2014,02,19,01,43,-0.50
2014,02,19,01,44,-0.50
2014,02,19,01,45,-0.50
2014,02,19,01,46,-0.50
2014,02,19,01,47,-0.60
2014,02,19,01,48,-0.60
2014,02,19,01,49,-0.60
2014,02,19,01,50,-0.60
2014,02,19,01,51,-0.60
2014,02,19,01,52,-0.50
2014,02,19,01,53,-0.50
2014,02,19,01,54,-0.50
2014,02,19,01,55,-0.50
2014,02,19,01,56,-0.50
2014,02,19,01,57,-0.50
2014,02,19,01,58,-0.60
2014,02,19,01,59,-0.60
2014,02,19,02,00,-0.60
2014,02,19,02,01,-0.60
2014,02,19,02,02,-0.60
2014,02,19,02,03,-0.60
2014,02,19,02,04,-0.70
2014,02,19,02,05,-0.70
2014,02,19,02,06,-0.70
2014,02,19,02,07,-0.80
2014,02,19,02,08,-0.80
2014,02,19,02,09,-0.80
2014,02,19,02,10,-0.70
2014,02,19,02,11,-0.70
2014,02,19,02,12,-0.70
2014,02,19,02,13,-0.70
2014,02,19,02,14,-0.70
2014,02,19,02,15,-0.70
2014,02,19,02,16,-0.70
2014,02,19,02,17,-0.70
2014,02,19,02,18,-0.70
2014,02,19,02,19,-0.70
2014,02,19,02,20,-0.80
2014,02,19,02,21,-0.80
2014,02,19,02,22,-0.80
2014,02,19,02,23,-0.80
2014,02,19,02,24,-0.80
2014,02,19,02,25,-0.80
2014,02,19,02,26,-0.80
2014,02,19,02,27,-0.80
2014,02,19,02,28,-0.80
2014,02,19,02,29,-0.90
2014,02,19,02,30,-0.90
2014,02,19,02,31,-0.90
2014,02,19,02,32,-0.90
2014,02,19,02,33,-0.90
2014,02,19,02,34,-0.90
2014,02,19,02,35,-0.90
2014,02,19,02,36,-0.90
2014,02,19,02,37,-0.80
2014,02,19,02,38,-0.80
2014,02,19,02,39,-0.80
2014,02,19,02,40,-0.70
2014,02,19,02,41,-0.70
2014,02,19,02,42,-0.70
2014,02,19,02,43,-0.70
2014,02,19,02,44,-0.70
2014,02,19,02,45,-0.70
2014,02,19,02,46,-0.70
2014,02,19,02,47,-0.70
2014,02,19,02,48,-0.60
2014,02,19,02,49,-0.60
2014,02,19,02,50,-0.60
2014,02,19,02,51,-0.50
2014,02,19,02,52,-0.50
2014,02,19,02,53,-0.40
2014,02,19,02,54,-0.40
2014,02,19,02,55,-0.30
2014,02,19,02,56,-0.30
2014,02,19,02,57,-0.20
2014,02,19,02,58,-0.20
2014,02,19,02,59,-0.20
2014,02,19,03,00,-0.20
2014,02,19,03,01,-0.10
2014,02,19,03,02,-0.10
2014,02,19,03,03,-0.10
2014,02,19,03,04,-0.10
2014,02,19,03,05,0.00
2014,02,19,03,06,0.00
2014,02,19,03,07,0.00
2014,02,19,03,08,0.10
2014,02,19,03,09,0.10
2014,02,19,03,10,0.10
2014,02,19,03,11,0.10
2014,02,19,03,12,0.10
2014,02,19,03,13,0.20
2014,02,19,03,14,0.20
2014,02,19,03,15,0.30
2014,02,19,03,16,0.30
2014,02,19,03,17,0.40
2014,02,19,03,18,0.50
2014,02,19,03,19,0.50
2014,02,19,03,20,0.60
2014,02,19,03,21,0.60
2014,02,19,03,22,0.70
2014,02,19,03,23,0.70
2014,02,19,03,24,0.80
2014,02,19,03,25,0.80
2014,02,19,03,26,0.80
2014,02,19,03,27,0.80
2014,02,19,03,28,0.80
2014,02,19,03,29,0.80
2014,02,19,03,30,0.80
2014,02,19,03,31,0.80
2014,02,19,03,32,0.80
2014,02,19,03,33,0.70
2014,02,19,03,34,0.60
2014,02,19,03,35,0.50
2014,02,19,03,36,0.40
2014,02,19,03,37,0.40
2014,02,19,03,38,0.30
2014,02,19,03,39,0.30
2014,02,19,03,40,0.30
2014,02,19,03,41,0.20
2014,02,19,03,42,0.20
2014,02,19,03,43,0.20
2014,02,19,03,44,0.20
2014,02,19,03,45,0.10
2014,02,19,03,46,0.10
2014,02,19,03,47,0.10
2014,02,19,03,48,0.10
2014,02,19,03,49,0.00
2014,02,19,03,50,0.00
2014,02,19,03,51,-0.10
2014,02,19,03,52,-0.10
2014,02,19,03,53,-0.10
2014,02,19,03,54,-0.10
2014,02,19,03,55,-0.10
2014,02,19,03,56,-0.10
2014,02,19,03,57,-0.20
2014,02,19,03,58,-0.20
2014,02,19,03,59,-0.30
2014,02,19,04,00,-0.40
2014,02,19,04,01,-0.50
2014,02,19,04,02,-0.60
2014,02,19,04,03,-0.70
2014,02,19,04,04,-0.70
2014,02,19,04,05,-0.80
2014,02,19,04,06,-0.80
2014,02,19,04,07,-0.80
2014,02,19,04,08,-0.80
2014,02,19,04,09,-0.80
2014,02,19,04,10,-0.80
2014,02,19,04,11,-0.80
2014,02,19,04,12,-0.80
2014,02,19,04,13,-0.80
2014,02,19,04,14,-0.80
2014,02,19,04,15,-0.80
2014,02,19,04,16,-0.80
2014,02,19,04,17,-0.80
2014,02,19,04,18,-0.80
2014,02,19,04,19,-0.80
2014,02,19,04,20,-0.70
2014,02,19,04,21,-0.70
2014,02,19,04,22,-0.70
2014,02,19,04,23,-0.70
2014,02,19,04,24,-0.70
2014,02,19,04,25,-0.70
2014,02,19,04,26,-0.70
2014,02,19,04,27,-0.70
2014,02,19,04,28,-0.70
2014,02,19,04,29,-0.70
2014,02,19,04,30,-0.70
2014,02,19,04,31,-0.80
2014,02,19,04,32,-0.80
2014,02,19,04,33,-0.80
2014,02,19,04,34,-0.80
2014,02,19,04,35,-0.90
2014,02,19,04,36,-0.90
2014,02,19,04,37,-0.90
2014,02,19,04,38,-0.90
2014,02,19,04,39,-1.00
2014,02,19,04,40,-1.00
2014,02,19,04,41,-0.90
2014,02,19,04,42,-0.90
2014,02,19,04,43,-0.90
2014,02,19,04,44,-0.90
2014,02,19,04,45,-0.90
2014,02,19,04,46,-0.90
2014,02,19,04,47,-0.90
2014,02,19,04,48,-0.90
2014,02,19,04,49,-0.90
2014,02,19,04,50,-0.90
2014,02,19,04,51,-0.80
2014,02,19,04,52,-0.80
2014,02,19,04,53,-0.70
2014,02,19,04,54,-0.70
2014,02,19,04,55,-0.70
2014,02,19,04,56,-0.70
2014,02,19,04,57,-0.70
2014,02,19,04,58,-0.70
2014,02,19,04,59,-0.70
2014,02,19,05,00,-0.70
2014,02,19,05,01,-0.70
2014,02,19,05,02,-0.70
2014,02,19,05,03,-0.80
2014,02,19,05,04,-0.80
2014,02,19,05,05,-0.80
2014,02,19,05,06,-0.80
2014,02,19,05,07,-0.80
2014,02,19,05,08,-0.90
2014,02,19,05,09,-0.90
2014,02,19,05,10,-0.90
2014,02,19,05,11,-0.90
2014,02,19,05,12,-0.90
2014,02,19,05,13,-1.00
2014,02,19,05,14,-1.00
2014,02,19,05,15,-1.00
2014,02,19,05,16,-1.00
2014,02,19,05,17,-1.10
2014,02,19,05,18,-1.10
2014,02,19,05,19,-1.10
2014,02,19,05,20,-1.10
2014,02,19,05,21,-1.10
2014,02,19,05,22,-1.10
2014,02,19,05,23,-1.10
2014,02,19,05,24,-1.10
2014,02,19,05,25,-1.10
2014,02,19,05,26,-1.10
2014,02,19,05,27,-1.20
2014,02,19,05,28,-1.20
2014,02,19,05,29,-1.20
2014,02,19,05,30,-1.20
2014,02,19,05,31,-1.30
2014,02,19,05,32,-1.20
2014,02,19,05,33,-1.20
2014,02,19,05,34,-1.20
2014,02,19,05,35,-1.10
2014,02,19,05,36,-1.00
2014,02,19,05,37,-0.90
2014,02,19,05,38,-0.90
2014,02,19,05,39,-0.80
2014,02,19,05,40,-0.80
2014,02,19,05,41,-0.70
2014,02,19,05,42,-0.70
2014,02,19,05,43,-0.60
2014,02,19,05,44,-0.60
2014,02,19,05,45,-0.50
2014,02,19,05,46,-0.50
2014,02,19,05,47,-0.40
2014,02,19,05,48,-0.40
2014,02,19,05,49,-0.40
2014,02,19,05,50,-0.30
2014,02,19,05,51,-0.30
2014,02,19,05,52,-0.40
2014,02,19,05,53,-0.40
2014,02,19,05,54,-0.40
2014,02,19,05,55,-0.40
2014,02,19,05,56,-0.40
2014,02,19,05,57,-0.50
2014,02,19,05,58,-0.50
2014,02,19,05,59,-0.50
2014,02,19,06,00,-0.50
2014,02,19,06,01,-0.60
2014,02,19,06,02,-0.60
2014,02,19,06,03,-0.70
2014,02,19,06,04,-0.70
2014,02,19,06,05,-0.70
2014,02,19,06,06,-0.70
2014,02,19,06,07,-0.80
2014,02,19,06,08,-0.80
2014,02,19,06,09,-0.80
2014,02,19,06,10,-0.80
2014,02,19,06,11,-0.90
2014,02,19,06,12,-0.90
2014,02,19,06,13,-1.00
2014,02,19,06,14,-1.00
2014,02,19,06,15,-1.00
2014,02,19,06,16,-1.10
2014,02,19,06,17,-1.10
2014,02,19,06,18,-1.10
2014,02,19,06,19,-1.10
2014,02,19,06,20,-1.10
2014,02,19,06,21,-1.10
2014,02,19,06,22,-1.10
2014,02,19,06,23,-1.10
2014,02,19,06,24,-1.10
2014,02,19,06,25,-1.10
2014,02,19,06,26,-1.10
2014,02,19,06,27,-1.10
2014,02,19,06,28,-1.10
2014,02,19,06,29,-1.10
2014,02,19,06,30,-1.10
2014,02,19,06,31,-1.10
2014,02,19,06,32,-1.10
2014,02,19,06,33,-1.00
2014,02,19,06,34,-1.00
2014,02,19,06,35,-1.10
2014,02,19,06,36,-1.10
2014,02,19,06,37,-1.10
2014,02,19,06,38,-1.10
2014,02,19,06,39,-1.10
2014,02,19,06,40,-1.00
2014,02,19,06,41,-1.00
2014,02,19,06,42,-1.00
2014,02,19,06,43,-0.90
2014,02,19,06,44,-0.90
2014,02,19,06,45,-1.00
2014,02,19,06,46,-1.00
2014,02,19,06,47,-1.00
2014,02,19,06,48,-1.00
2014,02,19,06,49,-1.10
2014,02,19,06,50,-1.10
2014,02,19,06,51,-1.00
2014,02,19,06,52,-1.00
2014,02,19,06,53,-1.00
2014,02,19,06,54,-0.90
2014,02,19,06,55,-0.90
2014,02,19,06,56,-0.90
2014,02,19,06,57,-0.80
2014,02,19,06,58,-0.80
2014,02,19,06,59,-0.80
2014,02,19,07,00,-0.80
2014,02,19,07,01,-0.80
2014,02,19,07,02,-0.80
2014,02,19,07,03,-0.80
2014,02,19,07,04,-0.80
2014,02,19,07,05,-0.70
2014,02,19,07,06,-0.70
2014,02,19,07,07,-0.70
2014,02,19,07,08,-0.60
2014,02,19,07,09,-0.60
2014,02,19,07,10,-0.60
2014,02,19,07,11,-0.60
2014,02,19,07,12,-0.50
2014,02,19,07,13,-0.50
2014,02,19,07,14,-0.40
2014,02,19,07,15,-0.40
2014,02,19,07,16,-0.30
2014,02,19,07,17,-0.30
2014,02,19,07,18,-0.20
2014,02,19,07,19,-0.20
2014,02,19,07,20,-0.20
2014,02,19,07,21,-0.20
2014,02,19,07,22,-0.20
2014,02,19,07,23,-0.20
2014,02,19,07,24,-0.20
2014,02,19,07,25,-0.10
2014,02,19,07,26,-0.20
2014,02,19,07,27,-0.20
2014,02,19,07,28,-0.20
2014,02,19,07,29,-0.20
2014,02,19,07,30,-0.20
2014,02,19,07,31,-0.20
2014,02,19,07,32,-0.20
2014,02,19,07,33,-0.20
2014,02,19,07,34,-0.20
2014,02,19,07,35,-0.20
2014,02,19,07,36,-0.20
2014,02,19,07,37,-0.20
2014,02,19,07,38,-0.20
2014,02,19,07,39,-0.20
2014,02,19,07,40,-0.20
2014,02,19,07,41,-0.20
2014,02,19,07,42,-0.20
2014,02,19,07,43,-0.20
2014,02,19,07,44,-0.20
2014,02,19,07,45,-0.20
2014,02,19,07,46,-0.20
2014,02,19,07,47,-0.20
2014,02,19,07,48,-0.20
2014,02,19,07,49,-0.20
2014,02,19,07,50,-0.20
2014,02,19,07,51,-0.30
2014,02,19,07,52,-0.30
2014,02,19,07,53,-0.30
2014,02,19,07,54,-0.30
2014,02,19,07,55,-0.30
2014,02,19,07,56,-0.30
2014,02,19,07,57,-0.30
2014,02,19,07,58,-0.30
2014,02,19,07,59,-0.30
2014,02,19,08,00,-0.30
2014,02,19,08,01,-0.30
2014,02,19,08,02,-0.30
2014,02,19,08,03,-0.30
2014,02,19,08,04,-0.30
2014,02,19,08,05,-0.30
2014,02,19,08,06,-0.30
2014,02,19,08,07,-0.30
2014,02,19,08,08,-0.30
2014,02,19,08,09,-0.30
2014,02,19,08,10,-0.30
2014,02,19,08,11,-0.30
2014,02,19,08,12,-0.30
2014,02,19,08,13,-0.30
2014,02,19,08,14,-0.20
2014,02,19,08,15,-0.10
2014,02,19,08,16,-0.10
2014,02,19,08,17,0.00
2014,02,19,08,18,0.10
2014,02,19,08,19,0.20
2014,02,19,08,20,0.20
2014,02,19,08,21,0.30
2014,02,19,08,22,0.40
2014,02,19,08,23,0.40
2014,02,19,08,24,0.50
2014,02,19,08,25,0.60
2014,02,19,08,26,0.60
2014,02,19,08,27,0.70
2014,02,19,08,28,0.80
2014,02,19,08,29,0.80
2014,02,19,08,30,0.90
2014,02,19,08,31,1.00
2014,02,19,08,32,1.00
2014,02,19,08,33,1.10
2014,02,19,08,34,1.10
2014,02,19,08,35,1.20
2014,02,19,08,36,1.30
2014,02,19,08,37,1.40
2014,02,19,08,38,1.50
2014,02,19,08,39,1.60
2014,02,19,08,40,1.70
2014,02,19,08,41,1.70
2014,02,19,08,42,1.80
2014,02,19,08,43,1.90
2014,02,19,08,44,1.90
2014,02,19,08,45,2.00
2014,02,19,08,46,2.10
2014,02,19,08,47,2.10
2014,02,19,08,48,2.20
2014,02,19,08,49,2.20
2014,02,19,08,50,2.30
2014,02,19,08,51,2.30
2014,02,19,08,52,2.40
2014,02,19,08,53,2.50
2014,02,19,08,54,2.50
2014,02,19,08,55,2.60
2014,02,19,08,56,2.60
2014,02,19,08,57,2.70
2014,02,19,08,58,2.70
2014,02,19,08,59,2.80
2014,02,19,09,00,2.80
2014,02,19,09,01,2.80
2014,02,19,09,02,2.80
2014,02,19,09,03,2.80
2014,02,19,09,04,2.80
2014,02,19,09,05,2.90
2014,02,19,09,06,2.90
2014,02,19,09,07,2.90
2014,02,19,09,08,3.00
2014,02,19,09,09,3.10
2014,02,19,09,10,3.10
2014,02,19,09,11,3.20
2014,02,19,09,12,3.20
2014,02,19,09,13,3.30
2014,02,19,09,14,3.30
2014,02,19,09,15,3.40
2014,02,19,09,16,3.40
2014,02,19,09,17,3.50
2014,02,19,09,18,3.60
2014,02,19,09,19,3.60
2014,02,19,09,20,3.70
2014,02,19,09,21,3.70
2014,02,19,09,22,3.80
2014,02,19,09,23,3.80
2014,02,19,09,24,3.90
2014,02,19,09,25,4.00
2014,02,19,09,26,4.10
2014,02,19,09,27,4.10
2014,02,19,09,28,4.20
2014,02,19,09,29,4.20
2014,02,19,09,30,4.20
2014,02,19,09,31,4.20
2014,02,19,09,32,4.30
2014,02,19,09,33,4.30
2014,02,19,09,34,4.30
2014,02,19,09,35,4.30
2014,02,19,09,36,4.30
2014,02,19,09,37,4.30
2014,02,19,09,38,4.30
2014,02,19,09,39,4.30
2014,02,19,09,40,4.30
2014,02,19,09,41,4.30
2014,02,19,09,42,4.40
2014,02,19,09,43,4.40
2014,02,19,09,44,4.50
2014,02,19,09,45,4.50
2014,02,19,09,46,4.50
2014,02,19,09,47,4.50
2014,02,19,09,48,4.50
2014,02,19,09,49,4.50
2014,02,19,09,50,4.50
2014,02,19,09,51,4.50
2014,02,19,09,52,4.50
2014,02,19,09,53,4.50
2014,02,19,09,54,4.50
2014,02,19,09,55,4.50
2014,02,19,09,56,4.60
2014,02,19,09,57,4.60
2014,02,19,09,58,4.70
2014,02,19,09,59,4.80
2014,02,19,10,00,4.80
2014,02,19,10,01,4.90
2014,02,19,10,02,4.90
2014,02,19,10,03,4.90
2014,02,19,10,04,5.00
2014,02,19,10,05,5.00
2014,02,19,10,06,5.00
2014,02,19,10,07,5.00
2014,02,19,10,08,5.00
2014,02,19,10,09,5.00
2014,02,19,10,10,5.10
2014,02,19,10,11,5.10
2014,02,19,10,12,5.10
2014,02,19,10,13,5.10
2014,02,19,10,14,5.20
2014,02,19,10,15,5.20
2014,02,19,10,16,5.20
2014,02,19,10,17,5.20
2014,02,19,10,18,5.30
2014,02,19,10,19,5.30
2014,02,19,10,20,5.40
2014,02,19,10,21,5.40
2014,02,19,10,22,5.50
2014,02,19,10,23,5.40
2014,02,19,10,24,5.50
2014,02,19,10,25,5.50
2014,02,19,10,26,5.60
2014,02,19,10,27,5.60
2014,02,19,10,28,5.70
2014,02,19,10,29,5.70
2014,02,19,10,30,5.70
2014,02,19,10,31,5.70
2014,02,19,10,32,5.70
2014,02,19,10,33,5.70
2014,02,19,10,34,5.70
2014,02,19,10,35,5.70
2014,02,19,10,36,5.70
2014,02,19,10,37,5.70
2014,02,19,10,38,5.70
2014,02,19,10,39,5.80
2014,02,19,10,40,5.80
2014,02,19,10,41,5.90
2014,02,19,10,42,5.90
2014,02,19,10,43,6.00
2014,02,19,10,44,6.00
2014,02,19,10,45,6.00
2014,02,19,10,46,6.00
2014,02,19,10,47,6.00
2014,02,19,10,48,6.00
2014,02,19,10,49,6.00
2014,02,19,10,50,6.00
2014,02,19,10,51,6.00
2014,02,19,10,52,6.00
2014,02,19,10,53,6.10
2014,02,19,10,54,6.10
2014,02,19,10,55,6.20
2014,02,19,10,56,6.20
2014,02,19,10,57,6.30
2014,02,19,10,58,6.30
2014,02,19,10,59,6.30
2014,02,19,11,00,6.40
2014,02,19,11,01,6.40
2014,02,19,11,02,6.40
2014,02,19,11,03,6.50
2014,02,19,11,04,6.50
2014,02,19,11,05,6.40
2014,02,19,11,06,6.40
2014,02,19,11,07,6.30
2014,02,19,11,08,6.20
2014,02,19,11,09,6.20
2014,02,19,11,10,6.10
2014,02,19,11,11,6.10
2014,02,19,11,12,6.10
2014,02,19,11,13,6.10
2014,02,19,11,14,6.10
2014,02,19,11,15,6.10
2014,02,19,11,16,6.10
2014,02,19,11,17,6.10
2014,02,19,11,18,6.20
2014,02,19,11,19,6.20
2014,02,19,11,20,6.20
2014,02,19,11,21,6.20
2014,02,19,11,22,6.30
2014,02,19,11,23,6.30
2014,02,19,11,24,6.40
2014,02,19,11,25,6.30
2014,02,19,11,26,6.30
2014,02,19,11,27,6.30
2014,02,19,11,28,6.30
2014,02,19,11,29,6.30
2014,02,19,11,30,6.30
2014,02,19,11,31,6.30
2014,02,19,11,32,6.40
2014,02,19,11,33,6.40
2014,02,19,11,34,6.40
2014,02,19,11,35,6.40
2014,02,19,11,36,6.30
2014,02,19,11,37,6.30
2014,02,19,11,38,6.20
2014,02,19,11,39,6.20
2014,02,19,11,40,6.20
2014,02,19,11,41,6.20
2014,02,19,11,42,6.20
2014,02,19,11,43,6.30
2014,02,19,11,44,6.30
2014,02,19,11,45,6.30
2014,02,19,11,46,6.30
2014,02,19,11,47,6.30
2014,02,19,11,48,6.30
2014,02,19,11,49,6.40
2014,02,19,11,50,6.40
2014,02,19,11,51,6.40
2014,02,19,11,52,6.40
2014,02,19,11,53,6.40
2014,02,19,11,54,6.40
2014,02,19,11,55,6.40
2014,02,19,11,56,6.40
2014,02,19,11,57,6.40
2014,02,19,11,58,6.40
2014,02,19,11,59,6.50
2014,02,19,12,00,6.50
2014,02,19,12,01,6.40
2014,02,19,12,02,6.50
2014,02,19,12,03,6.40
2014,02,19,12,04,6.40
2014,02,19,12,05,6.40
2014,02,19,12,06,6.40
2014,02,19,12,07,6.30
2014,02,19,12,08,6.30
2014,02,19,12,09,6.30
2014,02,19,12,10,6.30
2014,02,19,12,11,6.30
2014,02,19,12,12,6.40
2014,02,19,12,13,6.40
2014,02,19,12,14,6.50
2014,02,19,12,15,6.50
2014,02,19,12,16,6.50
2014,02,19,12,17,6.60
2014,02,19,12,18,6.60
2014,02,19,12,19,6.60
2014,02,19,12,20,6.70
2014,02,19,12,21,6.70
2014,02,19,12,22,6.70
2014,02,19,12,23,6.70
2014,02,19,12,24,6.70
2014,02,19,12,25,6.70
2014,02,19,12,26,6.70
2014,02,19,12,27,6.80
2014,02,19,12,28,6.80
2014,02,19,12,29,6.80
2014,02,19,12,30,6.90
2014,02,19,12,31,6.90
2014,02,19,12,32,6.90
2014,02,19,12,33,7.00
2014,02,19,12,34,7.00
2014,02,19,12,35,7.00
2014,02,19,12,36,7.10
2014,02,19,12,37,7.20
2014,02,19,12,38,7.30
2014,02,19,12,39,7.30
2014,02,19,12,40,7.40
2014,02,19,12,41,7.50
2014,02,19,12,42,7.50
2014,02,19,12,43,7.60
2014,02,19,12,44,7.60
2014,02,19,12,45,7.60
2014,02,19,12,46,7.60
2014,02,19,12,47,7.50
2014,02,19,12,48,7.50
2014,02,19,12,49,7.40
2014,02,19,12,50,7.30
2014,02,19,12,51,7.30
2014,02,19,12,52,7.30
2014,02,19,12,53,7.30
2014,02,19,12,54,7.30
2014,02,19,12,55,7.30
2014,02,19,12,56,7.40
2014,02,19,12,57,7.40
2014,02,19,12,58,7.50
2014,02,19,12,59,7.60
2014,02,19,13,00,7.60
2014,02,19,13,01,7.70
2014,02,19,13,02,7.70
2014,02,19,13,03,7.70
2014,02,19,13,04,7.80
2014,02,19,13,05,7.80
2014,02,19,13,06,7.80
2014,02,19,13,07,7.80
2014,02,19,13,08,7.80
2014,02,19,13,09,7.90
2014,02,19,13,10,7.90
2014,02,19,13,11,8.00
2014,02,19,13,12,8.00
2014,02,19,13,13,8.00
2014,02,19,13,14,8.10
2014,02,19,13,15,8.10
2014,02,19,13,16,8.20
2014,02,19,13,17,8.20
2014,02,19,13,18,8.30
2014,02,19,13,19,8.30
2014,02,19,13,20,8.30
2014,02,19,13,21,8.20
2014,02,19,13,22,8.20
2014,02,19,13,23,8.20
2014,02,19,13,24,8.20
2014,02,19,13,25,8.20
2014,02,19,13,26,8.20
2014,02,19,13,27,8.20
2014,02,19,13,28,8.10
2014,02,19,13,29,8.10
2014,02,19,13,30,8.00
2014,02,19,13,31,8.00
2014,02,19,13,32,8.00
2014,02,19,13,33,8.00
2014,02,19,13,34,8.00
2014,02,19,13,35,8.10
2014,02,19,13,36,8.10
2014,02,19,13,37,8.20
2014,02,19,13,38,8.30
2014,02,19,13,39,8.30
2014,02,19,13,40,8.40
2014,02,19,13,41,8.40
2014,02,19,13,42,8.40
2014,02,19,13,43,8.50
2014,02,19,13,44,8.40
2014,02,19,13,45,8.40
2014,02,19,13,46,8.30
2014,02,19,13,47,8.20
2014,02,19,13,48,8.10
2014,02,19,13,49,8.00
2014,02,19,13,50,8.00
2014,02,19,13,51,8.00
2014,02,19,13,52,8.00
2014,02,19,13,53,8.00
2014,02,19,13,54,8.00
2014,02,19,13,55,8.00
2014,02,19,13,56,8.00
2014,02,19,13,57,8.00
2014,02,19,13,58,8.10
2014,02,19,13,59,8.10
2014,02,19,14,00,8.10
2014,02,19,14,01,8.10
2014,02,19,14,02,8.20
2014,02,19,14,03,8.20
2014,02,19,14,04,8.20
2014,02,19,14,05,8.30
2014,02,19,14,06,8.20
2014,02,19,14,07,8.20
2014,02,19,14,08,8.20
2014,02,19,14,09,8.20
2014,02,19,14,10,8.20
2014,02,19,14,11,8.20
2014,02,19,14,12,8.30
2014,02,19,14,13,8.30
2014,02,19,14,14,8.30
2014,02,19,14,15,8.30
2014,02,19,14,16,8.30
2014,02,19,14,17,8.20
2014,02,19,14,18,8.10
2014,02,19,14,19,8.10
2014,02,19,14,20,8.00
2014,02,19,14,21,7.90
2014,02,19,14,22,7.90
2014,02,19,14,23,7.80
2014,02,19,14,24,7.80
2014,02,19,14,25,7.80
2014,02,19,14,26,7.70
2014,02,19,14,27,7.70
2014,02,19,14,28,7.60
2014,02,19,14,29,7.60
2014,02,19,14,30,7.60
2014,02,19,14,31,7.60
2014,02,19,14,32,7.60
2014,02,19,14,33,7.60
2014,02,19,14,34,7.60
2014,02,19,14,35,7.60
2014,02,19,14,36,7.60
2014,02,19,14,37,7.60
2014,02,19,14,38,7.60
2014,02,19,14,39,7.60
2014,02,19,14,40,7.60
2014,02,19,14,41,7.60
2014,02,19,14,42,7.60
2014,02,19,14,43,7.60
2014,02,19,14,44,7.60
2014,02,19,14,45,7.50
2014,02,19,14,46,7.50
2014,02,19,14,47,7.40
2014,02,19,14,48,7.40
2014,02,19,14,49,7.40
2014,02,19,14,50,7.40
2014,02,19,14,51,7.30
2014,02,19,14,52,7.30
2014,02,19,14,53,7.30
2014,02,19,14,54,7.30
2014,02,19,14,55,7.30
2014,02,19,14,56,7.30
2014,02,19,14,57,7.20
2014,02,19,14,58,7.20
2014,02,19,14,59,7.20
2014,02,19,15,00,7.20
2014,02,19,15,01,7.20
2014,02,19,15,02,7.20
2014,02,19,15,03,7.20
2014,02,19,15,04,7.20
2014,02,19,15,05,7.10
2014,02,19,15,06,7.10
2014,02,19,15,07,7.20
2014,02,19,15,08,7.20
2014,02,19,15,09,7.10
2014,02,19,15,10,7.10
2014,02,19,15,11,7.10
2014,02,19,15,12,7.10
2014,02,19,15,13,7.10
2014,02,19,15,14,7.10
2014,02,19,15,15,7.10
2014,02,19,15,16,7.10
2014,02,19,15,17,7.10
2014,02,19,15,18,7.10
2014,02,19,15,19,7.10
2014,02,19,15,20,7.10
2014,02,19,15,21,7.10
2014,02,19,15,22,7.10
2014,02,19,15,23,7.20
2014,02,19,15,24,7.20
2014,02,19,15,25,7.20
2014,02,19,15,26,7.20
2014,02,19,15,27,7.20
2014,02,19,15,28,7.20
2014,02,19,15,29,7.20
2014,02,19,15,30,7.20
2014,02,19,15,31,7.20
2014,02,19,15,32,7.20
2014,02,19,15,33,7.20
2014,02,19,15,34,7.20
2014,02,19,15,35,7.20
2014,02,19,15,36,7.20
2014,02,19,15,37,7.20
2014,02,19,15,38,7.20
2014,02,19,15,39,7.20
2014,02,19,15,40,7.20
2014,02,19,15,41,7.10
2014,02,19,15,42,7.10
2014,02,19,15,43,7.10
2014,02,19,15,44,7.10
2014,02,19,15,45,7.20
2014,02,19,15,46,7.20
2014,02,19,15,47,7.20
2014,02,19,15,48,7.20
2014,02,19,15,49,7.20
2014,02,19,15,50,7.10
2014,02,19,15,51,7.10
2014,02,19,15,52,7.10
2014,02,19,15,53,7.10
2014,02,19,15,54,7.10
2014,02,19,15,55,7.10
2014,02,19,15,56,7.10
2014,02,19,15,57,7.00
2014,02,19,15,58,7.00
2014,02,19,15,59,7.00
2014,02,19,16,00,6.90
2014,02,19,16,01,6.90
2014,02,19,16,02,6.90
2014,02,19,16,03,6.90
2014,02,19,16,04,6.90
2014,02,19,16,05,6.90
2014,02,19,16,06,6.90
2014,02,19,16,07,6.90
2014,02,19,16,08,6.90
2014,02,19,16,09,6.80
2014,02,19,16,10,6.80
2014,02,19,16,11,6.80
2014,02,19,16,12,6.80
2014,02,19,16,13,6.80
2014,02,19,16,14,6.80
2014,02,19,16,15,6.80
2014,02,19,16,16,6.70
2014,02,19,16,17,6.70
2014,02,19,16,18,6.70
2014,02,19,16,19,6.70
2014,02,19,16,20,6.70
2014,02,19,16,21,6.60
2014,02,19,16,22,6.60
2014,02,19,16,23,6.60
2014,02,19,16,24,6.60
2014,02,19,16,25,6.60
2014,02,19,16,26,6.50
2014,02,19,16,27,6.50
2014,02,19,16,28,6.50
2014,02,19,16,29,6.50
2014,02,19,16,30,6.40
2014,02,19,16,31,6.40
2014,02,19,16,32,6.40
2014,02,19,16,33,6.40
2014,02,19,16,34,6.40
2014,02,19,16,35,6.40
2014,02,19,16,36,6.30
2014,02,19,16,37,6.30
2014,02,19,16,38,6.30
2014,02,19,16,39,6.30
2014,02,19,16,40,6.30
2014,02,19,16,41,6.30
2014,02,19,16,42,6.30
2014,02,19,16,43,6.30
2014,02,19,16,44,6.30
2014,02,19,16,45,6.30
2014,02,19,16,46,6.20
2014,02,19,16,47,6.20
2014,02,19,16,48,6.20
2014,02,19,16,49,6.20
2014,02,19,16,50,6.10
2014,02,19,16,51,6.10
2014,02,19,16,52,6.10
2014,02,19,16,53,6.10
2014,02,19,16,54,6.10
2014,02,19,16,55,6.10
2014,02,19,16,56,6.10
2014,02,19,16,57,6.10
2014,02,19,16,58,6.00
2014,02,19,16,59,6.00
2014,02,19,17,00,6.00
2014,02,19,17,01,5.90
2014,02,19,17,02,5.90
2014,02,19,17,03,5.90
2014,02,19,17,04,5.90
2014,02,19,17,05,5.80
2014,02,19,17,06,5.80
2014,02,19,17,07,5.80
2014,02,19,17,08,5.80
2014,02,19,17,09,5.80
2014,02,19,17,10,5.80
2014,02,19,17,11,5.80
2014,02,19,17,12,5.70
2014,02,19,17,13,5.80
2014,02,19,17,14,5.70
2014,02,19,17,15,5.80
2014,02,19,17,16,5.80
2014,02,19,17,17,5.70
2014,02,19,17,18,5.70
2014,02,19,17,19,5.70
2014,02,19,17,20,5.70
2014,02,19,17,21,5.70
2014,02,19,17,22,5.70
2014,02,19,17,23,5.70
2014,02,19,17,24,5.70
2014,02,19,17,25,5.70
2014,02,19,17,26,5.70
2014,02,19,17,27,5.70
2014,02,19,17,28,5.70
2014,02,19,17,29,5.70
2014,02,19,17,30,5.70
2014,02,19,17,31,5.70
2014,02,19,17,32,5.70
2014,02,19,17,33,5.70
2014,02,19,17,34,5.70
2014,02,19,17,35,5.70
2014,02,19,17,36,5.60
2014,02,19,17,37,5.60
2014,02,19,17,38,5.60
2014,02,19,17,39,5.60
2014,02,19,17,40,5.50
2014,02,19,17,41,5.50
2014,02,19,17,42,5.50
2014,02,19,17,43,5.50
2014,02,19,17,44,5.50
2014,02,19,17,45,5.40
2014,02,19,17,46,5.40